Location: Lecco
(45.8566°N, 9.3977°E)
Time: 02:59:43
(UTC+02:00)

Courier 1B Rocket - Pass Details

Date: 30 August 2019
Orbit: 920 x 1202 km, 28.2° (Epoch: 16 October)

Event Time Altitude Azimuth Distance (km) Brightness Sun altitude
Rises 03:50:46 0° 240° (WSW) 3,756 - -25.8°
Reaches altitude 10° 03:54:19 10° 222° (SW) 2,859 - -25.4°
Maximum altitude 03:58:49 18° 182° (S) 2,376 - -24.9°
Exits shadow 04:01:12 16° 159° (SSE) 2,568 6.9 -24.6°
Drops below altitude 10° 04:03:29 10° 142° (SE) 2,993 7.5 -24.3°
Sets 04:07:20 0° 125° (SE) 4,001 8.3 -23.9°
